Key statistics
Satellite CP11 (ISX) at a glance.
Uptime
1980
Days in orbit
Revolutions
≈ 15.6
Per day
Orbit
LEO
Low Earth Orbit
Inclination
85.0
Latest
Satellite identification and parameters
Extended collection of information and parameters for CP11 (ISX).
Object identification
Identified? True
Debris? False
Object name: CP11 (ISX)
International designator: 2018-104H
Object number (NORAD): 43856
Object ID (CCSDS): 43856
Country: UNITED STATES OF AMERICA (US)
Current information (Y/N): Y
RCS size: SMALL
Orbital parameters
Decay date: May 18, 2024
Period: 92.237 minutes
Inclination: 85.02 deg
SMA: 6762.318 km
Apoapsis: 390.328 km
Periapsis: 378.039 km
RAAN: 3.7661 deg
Eccentricy: 0.0009086
Argument of periapsis: 137.0399 deg
Mean anomaly: 223.1575 deg
Mean motion: 15.61202864 rev/day
Mean motion (dot): 0.00116481 rev/day2
B* drag term: 0.001359 1/REarth
Two-line elements (TLE)
Creation date: Feb. 12, 2024, 3:07 a.m.
Reference frame: TEME
Reference center: EARTH
Epoch: Feb. 11, 2024, 8:58 p.m. UTC
TLE line 0: 0 CP11 (ISX)
TLE line 1: 1 43856U 18104H 24042.87378531 .00116481 00000-0 13590-2 0 9995
TLE line 2: 2 43856 85.0200 3.7661 0009086 137.0399 223.1575 15.61202864287312
Live tracking on map
Satellite CP11 (ISX) has decayed and is no longer in orbit. No tracking available.
In-orbit conjunctions
Satellite CP11 (ISX) has decayed and is no longer in orbit. No conjunctions available.
Associated space launch
NASA's signed a Venture Class Launch Services contract with Rocket Lab to launch 10 cubesats as a part of CubeSat Launch Initiative Educational Launch of Nanosatellites (ELaNa) program. Cubesats are: ALBus / CeREs / CHOMPTT / Da Vinci / ISX / NMTSat / RSat-P / Shields 1 / STF 1 / CubeSail A / CubeSail B /TOMSat EagleScout / TOMSat R3 / SHFT 1
CP11 (ISX) was lifted into orbit during the mission ‘Electron | This One's For Pickering (VCLS ELaNa XIX)’, on board a Electron space rocket.
The launch took place on Dec. 16, 2018, 6:33 a.m. from Rocket Lab Launch Complex 1A.
For more information about the launch, click the button.
Electron | This One's For Pickering (VCLS ELaNa XIX)
Agency: N/A
Status: Launch Successful
Launch date: Dec. 16, 2018, 6:33 a.m. UTC
Rocket: Electron
Launch pad: Rocket Lab Launch Complex 1A
Location: Rocket Lab Launch Complex 1, Mahia Peninsula, New Zealand
...
Latest news about this satellite
There are no fresh news available about this satellite. Check back as we update our databases every day.
Newsletter sign-up
Weekly statistics, charts and insights to help you stay on top of the space industry.
